Regional Weather Roundup
Issued by NWS Grand Forks, ND

Home | Current Version | Previous Version | Graphics & Text | Print | Product List | Glossary On
Versions: 1 2 3 4 5 6 7 8 9 10 11 12 13 14 15 16 17 18 19 20 21 22 23 24 25 26 27 28 29 30 31 32 33 34 35 36 37 38 39 40 41 42 43 44 45 46 47 48 49 50
000
ASUS43 KFGF 222310
RWRFGF
PRAIRIE TO PINES  WEATHER ROUNDUP
NATIONAL WEATHER SERVICE EASTERN NORTH DAKOTA/GRAND FORKS ND
500 PM CST SAT NOV 22 2014

 **SATELLITE DATA USED TO AUGMENT SKY COVER AT AUTOMATED STATIONS**
 *****  WEATHER ACROSS EASTERN NORTH DAKOTA  *****

CITY           SKY/WX    TMP DP  RH WIND       PRES   REMARKS
GRAND FORKS    CLOUDY    38  31  76 SE7       29.43S
GRAND FRKS AFB MOCLDY    37  32  80 SE8       29.42S
GRAND FRKS NWS   N/A     36 N/A N/A SE10        N/A
DEVILS LAKE    CLOUDY    37  27  65 SE9       29.34S
FARGO          MOCLDY    41  29  62 SE13      29.43S
WAHPETON ARPT  MOCLDY    32  30  93 S22G28    29.45R WCI  19
$$

 ***** WEATHER ACROSS CENTRAL AND WESTERN NORTH DAKOTA  *****

CITY           SKY/WX    TMP DP  RH WIND       PRES   REMARKS
BISMARCK       CLOUDY    40  30  67 CALM      29.35R
MINOT          CLOUDY    42  28  57 SE6       29.25F
JAMESTOWN      MOCLDY    37  28  70 S7        29.36F
MINOT AFB      CLOUDY    40  31  68 S8        29.25F
GARRISON         N/A     39  31  72 SW6       29.31R
WILLISTON      CLOUDY    39  31  72 S7        29.26R
DICKINSON      MOCLDY    36  33  89 S6        29.30F
HETTINGER      PTCLDY    38  33  82 W7        29.37F
$$

 *****  OTHER AIRPORT OBSERVATIONS IN OUR AREA  *****

CITY           SKY/WX    TMP DP  RH WIND       PRES   REMARKS
WALHALLA         N/A     32  32 100 E6        29.42F
GRAFTON AIRPOR FAIR      34  30  86 E8        29.43F
VALLEY CITY AR FAIR      37  28  70 SE7       29.38F
CANDO          CLOUDY    37  28  70 SE13      29.34S
CAVALIER APRT  FAIR      34  28  80 SE6       29.42F
GWINNER        CLEAR     36  32  87 SE12      29.41F
SHEYENNE NWR     N/A     33  29  84 SE9       29.95S
ROLLA          CLOUDY    32  32 100 SE12      29.33F WCI  23
 ***** THE ABOVE OBSERVATIONS ARE NON NWS ARE NOT QUALITY
       CONTROLLED AND MAY MIS-REPORT RAIN FOR SNOW...
$$

  *****  WEATHER ACROSS NORTHERN MINNESOTA  *****

CITY           SKY/WX    TMP DP  RH WIND       PRES   REMARKS
FLAG ISLAND    CLOUDY    34  28  80 E5        29.50F
WARROAD        CLOUDY    34  28  80 E7        29.50F
ROSEAU         CLOUDY    34  30  86 E8        29.48F
HALLOCK        CLOUDY    37  30  75 E8        29.44F
THF RVR FALLS  CLOUDY    37  30  75 E8        29.45F
BAUDETTE       MOCLDY    34  30  85 E8        29.50F
WASKISH        CLOUDY    39  30  70 CALM      29.50F
CROOKSTON      CLOUDY    37  30  75 SE8       29.45S
STEPHEN NDAWN    N/A     36  30  80 E7          N/A
GREENBUSH NDAW   N/A     36  30  80 E7          N/A
$$
  *****  WEATHER ACROSS CENTRAL AND WEST MINNESOTA  *****

CITY           SKY/WX    TMP DP  RH WIND       PRES   REMARKS
FOSSTON        MOCLDY    37  34  87 SE6       29.46S
BEMIDJI        MOCLDY    37  29  73 E5        29.48F
PARK RAPIDS    PTCLDY    37  29  72 SE8       29.48S
ELBOW LAKE       N/A     32  31  95 SE22      29.46R FOG     WCI  19
WADENA         MOCLDY    34  28  80 SE12      29.48F
DETROIT LAKES  MOCLDY    39  32  75 SE10      29.46S
MOORHEAD       CLOUDY    41  32  70 S10       29.44S
FERGUS FALLS   PTCLDY    36  28  75 SE14      29.46F
MORRIS MN      MIX PCPN  34  32  93 SE22      29.48R VSB 1/4 WCI  22
STAPLES        PTCLDY    34  28  80 SE7       29.51F
$$
  *****  WEATHER ELSEWHERE ACROSS MINNESOTA  *****

CITY           SKY/WX    TMP DP  RH WIND       PRES   REMARKS
DULUTH         CLOUDY    35  31  85 S9        29.61F FOG
INTRNTL FALLS  CLOUDY    35  29  78 E8        29.54F
ELY            PTCLDY    30  30 100 CALM      29.59F FOG
CLOQUET        CLOUDY    34  30  86 SE5       29.61F FOG
WHEATON        CLOUDY    30  30 100 SE24      29.47R FOG     WCI  16
BRAINERD       CLOUDY    32  30  92 S13       29.56F FOG     WCI  22
HIBBING        MOCLDY    37  28  70 S7        29.58S
ALEXANDRIA     FOG       32  31  96 SE17      29.51S VSB 3/4 WCI  21
SAINT CLOUD    CLOUDY    34  32  92 SE13      29.58F FOG     WCI  25
MINNEAPOLIS    CLOUDY    35  33  92 S8        29.65F FOG
$$

  *****  WEATHER ACROSS SOUTH DAKOTA  *****

CITY           SKY/WX    TMP DP  RH WIND       PRES   REMARKS
SIOUX FALLS    CLOUDY    42  36  79 S15       29.49F
BROOKINGS      NOT AVBL
WATERTOWN      MOCLDY    34  32  92 S16       29.42F FOG     WCI  24
HURON          PTCLDY    40  34  79 S8        29.42R
SISSETON         N/A     34  32  92 S14       29.42F WCI  25
ABERDEEN       MOCLDY    36  31  82 S10       29.39F
MITCHELL       MOCLDY    46  36  68 S12       29.42F
PIERRE         MOCLDY    37  30  75 NW6       29.39R
MOBRIDGE       CLOUDY    41  31  67 SE5       29.36S
RAPID CITY     CLOUDY    51  28  41 W7        29.40R
$$

  *****  SOME WEATHER IN NEARBY STATES *****

CITY           SKY/WX    TMP DP  RH WIND       PRES   REMARKS
GLASGOW MT     CLEAR     45  26  47 W20G29    29.24S
GREAT FALLS MT PTCLDY    40  19  43 W35G44    29.40R
CHEYENNE WY    CLOUDY    50  19  29 W17       29.61S
SCOTTSBLUFF NE CLOUDY    55  28  35 W23G29    29.55R
OMAHA NE       MOCLDY    54  48  80 S14       29.64F
DES MOINES IA  DRZL/FOG  51  49  92 S10       29.72F VSB 3/4
DAVENPORT IA   MOCLDY    54  48  80 S16G22    29.81S
CHICAGO IL     CLOUDY    50  45  83 S14       29.85F
EAU CLAIRE WI  CLOUDY    36  35  96 S5        29.70F FOG
LA CROSSE WI   CLOUDY    40  37  89 S5        29.74S
$$

  *****  SOME NATIONAL WEATHER *****

CITY           SKY/WX    TMP DP  RH WIND       PRES   REMARKS
LA GUARDIA NY  MOCLDY    43  18  36 SW12G20   30.26S
RALEIGH NC     PTCLDY    42  17  36 CALM      30.37F
ATLANTA GA     CLOUDY    57  30  35 E10       30.26F
NEW ORLEANS LA CLOUDY    64  59  83 E13       30.02F
OKLAHOMA CITY  CLOUDY    56  53  90 S15       29.79R
ALBUQUERQUE NM MOCLDY    57  18  21 S6        29.90F
SALT LAKE CITY RAIN      40  38  93 N17       29.80R FOG
LOS ANGELES CA PTSUNNY   66  54  65 W10       30.03F
BOISE ID       CLOUDY    43  35  73 W3        29.83R
SEATTLE WA     CLOUDY    47  43  86 E9        29.93R
$$

*** WEATHER ACROSS MANITOBA...SASKATCHEWAN AND ONTARIO ***
                ***ONTARIO***

CITY           SKY/WX    TMP DP  RH WIND       PRES   REMARKS
GERALDTON      CLOUDY    28  25  86 N2        29.65R
THUNDER BAY    CLOUDY    36  30  80 E3        29.66R
SIOUX LOOKOUT  CLOUDY    27  23  86 NE2       29.59F
TORONTO        LGT RAIN  39  37  93 S3        29.94S
BIG TROUT LK   MOCLDY     1   0  92 W3        29.72R
PICKLE LAKE    FLURRIES  18  10  73 NE6       29.65R WCI   9
DRYDEN         CLOUDY    28  25  86 E6        29.55F WCI  22
KENORA         FLURRIES  30  27  86 SE7       29.52F WCI  23
$$
                *** MANITOBA***

CITY           SKY/WX    TMP DP  RH WIND       PRES   REMARKS
BRANDON        FOG       25  25 100 E21       29.35F VSB 3/4 WCI  10
DAUPHIN        NOT AVBL
ISLAND LAKE    MOCLDY     7   1  78 NE3       29.69R
PILOT MOUND      N/A     30  28  93 E17         N/A  WCI  18
THE PAS        CLOUDY    10   7  85 E8        29.58R WCI  -1
THOMPSON       CRYSTALS  -6 -11  77 NE2       29.73R
WINNIPEG       CLOUDY    27  21  80 E9        29.48F WCI  17
LYNN LAKE      CLEAR     -9 -11  92 NE5       29.69R WCI -21
CHURCHILL      CRYSTALS -11 -18  70 W10       29.78R WCI -30
GILLAM         PTCLDY   -13 -18  77 VRB2      29.77S
$$
                ***SASKATCHEWAN***

CITY           SKY/WX    TMP DP  RH WIND       PRES   REMARKS
ESTEVAN        PTCLDY    37  32  81 SE7       29.20F
KINDERSLEY     NOT AVBL
LLOYDMINSTER   SNOW      21  19  93 NE10      29.28R VSB 1/2 WCI  10
PRINCE ALBERT  LGT SNOW  19  16  86 NE17G24   29.34R DRFTSNOWWCI   4
REGINA         MOCLDY    36  34  93 SE13      29.11F
YORKTON        FLURRIES  25  23  93 E9        29.28R WCI  15
N. BATTLEFORD  LGT SNOW  23  21  93 NE17G23   29.25R WCI   9
LA RONGE       CLOUDY    12   7  79 NE13G18   29.55R WCI  -3
SASKATOON      LGT SNOW  27  25  93 E21G31    29.17R DRFTSNOWWCI  13
SWIFT CURRENT  MOCLDY    39  32  75 W23G31    29.06R
$$
NOTE: THESE ARE AUTOMATED STATIONS WITH LIMITED QUALITY CONTROL
      "FAIR" INDICATES FEW OR NO CLOUDS BELOW 12,000 FEET WITH NO
      SIGNIFICANT WEATHER AND/OR OBSTRUCTIONS TO VISIBILITY.
      SKY/WX - SKY CONDITION AND SIGNIFICANT WEATHER.
      TMP - AIR TEMPERATURE.    DP   - DEWPOINT TEMPERATURE.
      RH  - RELATIVE HUMIDITY.  PRES - PRESSURE.
      HX  - HEAT INDEX.         WCI  - WIND CHILL INDEX.
$


USA.gov is the U.S. government's official web portal to all federal, state and local government web resources and services.